Stündliche Wetter Kysorychi

Heute, 28 Januar, Donnerstag

Zeit Temperatur Niederschläge Wind Luftdruck Luftfeuchtigkeit
00:00 -4°C° 0 mm 3 m/S 738 mmHg 95%
01:00 -4°C° 0 mm 3 m/S 737 mmHg 95%
02:00 -4°C° 0 mm 3 m/S 737 mmHg 94%
03:00 -4°C° 0 mm 3 m/S 737 mmHg 94%
04:00 -4°C° 0 mm 3 m/S 737 mmHg 93%
05:00 -4°C° 0 mm 4 m/S 737 mmHg 93%
06:00 -4°C° 0.1 mm 3 m/S 737 mmHg 93%
07:00 -5°C° 0.1 mm 3 m/S 737 mmHg 93%
08:00 -5°C° 0 mm 3 m/S 737 mmHg 94%
09:00 -5°C° 0 mm 3 m/S 737 mmHg 92%
10:00 -4°C° 0 mm 4 m/S 737 mmHg 91%
11:00 -4°C° 0 mm 4 m/S 736 mmHg 89%
12:00 -4°C° 0 mm 4 m/S 736 mmHg 89%
13:00 -4°C° 0 mm 4 m/S 736 mmHg 89%
14:00 -4°C° 0 mm 4 m/S 736 mmHg 89%
15:00 -5°C° 0 mm 4 m/S 736 mmHg 89%
16:00 -5°C° 0 mm 4 m/S 735 mmHg 89%
17:00 -5°C° 0 mm 4 m/S 735 mmHg 89%
18:00 -5°C° 0 mm 3 m/S 735 mmHg 89%
19:00 -6°C° 0 mm 3 m/S 735 mmHg 88%
20:00 -6°C° 0 mm 3 m/S 734 mmHg 88%
21:00 -6°C° 0 mm 3 m/S 734 mmHg 87%
22:00 -6°C° 0 mm 3 m/S 733 mmHg 87%
23:00 -5°C° 0 mm 2 m/S 733 mmHg 86%

Morgen, 29 Januar, Freitag

Zeit Temperatur Niederschläge Wind Luftdruck Luftfeuchtigkeit
00:00 -6°C° 0 mm 2 m/S 733 mmHg 88%
01:00 -6°C° 0 mm 2 m/S 732 mmHg 91%
02:00 -7°C° 0 mm 2 m/S 731 mmHg 93%
03:00 -7°C° 0.1 mm 3 m/S 731 mmHg 94%
04:00 -7°C° 0.1 mm 3 m/S 730 mmHg 94%
05:00 -6°C° 0.1 mm 3 m/S 730 mmHg 94%
06:00 -5°C° 0.3 mm 3 m/S 730 mmHg 94%
07:00 -5°C° 0.3 mm 4 m/S 730 mmHg 93%
08:00 -4°C° 0.3 mm 4 m/S 729 mmHg 93%
09:00 -4°C° 0 mm 4 m/S 729 mmHg 90%
10:00 -5°C° 0 mm 4 m/S 729 mmHg 86%
11:00 -6°C° 0 mm 5 m/S 729 mmHg 82%
12:00 -6°C° 0 mm 5 m/S 729 mmHg 84%
13:00 -6°C° 0 mm 5 m/S 729 mmHg 85%
14:00 -6°C° 0 mm 6 m/S 729 mmHg 87%
15:00 -6°C° 0.1 mm 5 m/S 729 mmHg 88%
16:00 -6°C° 0.1 mm 5 m/S 730 mmHg 88%
17:00 -7°C° 0.1 mm 5 m/S 730 mmHg 89%
18:00 -7°C° 0 mm 5 m/S 730 mmHg 89%
19:00 -7°C° 0 mm 4 m/S 730 mmHg 90%
20:00 -7°C° 0 mm 4 m/S 731 mmHg 91%
21:00 -7°C° 0 mm 4 m/S 731 mmHg 92%
22:00 -7°C° 0 mm 3 m/S 731 mmHg 93%
23:00 -6°C° 0 mm 2 m/S 731 mmHg 95%

übermorgen, 30 Januar, Samstag

Zeit Temperatur Niederschläge Wind Luftdruck Luftfeuchtigkeit
00:00 -7°C° 0 mm 2 m/S 731 mmHg 94%
01:00 -7°C° 0 mm 2 m/S 731 mmHg 94%
02:00 -7°C° 0 mm 2 m/S 731 mmHg 94%
03:00 -7°C° 0 mm 2 m/S 731 mmHg 92%
04:00 -7°C° 0 mm 2 m/S 730 mmHg 91%
05:00 -6°C° 0 mm 2 m/S 730 mmHg 89%
06:00 -6°C° 0 mm 2 m/S 730 mmHg 90%
07:00 -4°C° 0 mm 1 m/S 729 mmHg 90%
08:00 -3°C° 0 mm 1 m/S 729 mmHg 91%
09:00 -3°C° 0.3 mm 1 m/S 729 mmHg 91%
10:00 -4°C° 0.3 mm 2 m/S 729 mmHg 92%
11:00 -3°C° 0.3 mm 2 m/S 729 mmHg 92%
12:00 -3°C° 0.2 mm 2 m/S 728 mmHg 92%
13:00 0°C° 0.2 mm 1 m/S 728 mmHg 92%
14:00 0°C° 0.2 mm 1 m/S 727 mmHg 93%
15:00 0°C° 0.2 mm 1 m/S 727 mmHg 94%
16:00 0°C° 0.2 mm 1 m/S 726 mmHg 96%
17:00 0°C° 0.2 mm 1 m/S 726 mmHg 98%
18:00 -1°C° 1.2 mm 2 m/S 726 mmHg 98%
19:00 -1°C° 1.2 mm 2 m/S 725 mmHg 98%
20:00 -1°C° 1.2 mm 3 m/S 725 mmHg 98%
21:00 -1°C° 0.8 mm 3 m/S 725 mmHg 97%
22:00 -3°C° 0.8 mm 4 m/S 725 mmHg 96%
23:00 -5°C° 0.8 mm 5 m/S 725 mmHg 96%

31 Januar, Sonntag

Zeit Temperatur Niederschläge Wind Luftdruck Luftfeuchtigkeit
00:00 -5°C° 0.3 mm 5 m/S 726 mmHg 94%
01:00 -6°C° 0.3 mm 5 m/S 727 mmHg 93%
02:00 -7°C° 0.3 mm 5 m/S 728 mmHg 92%
03:00 -7°C° 0 mm 5 m/S 729 mmHg 92%
04:00 -8°C° 0 mm 4 m/S 730 mmHg 92%
05:00 -8°C° 0 mm 4 m/S 730 mmHg 92%
06:00 -8°C° 0 mm 4 m/S 731 mmHg 92%
07:00 -9°C° 0 mm 4 m/S 732 mmHg 92%
08:00 -8°C° 0 mm 3 m/S 733 mmHg 92%
09:00 -8°C° 0 mm 3 m/S 733 mmHg 91%
10:00 -8°C° 0 mm 3 m/S 734 mmHg 89%
11:00 -8°C° 0 mm 4 m/S 735 mmHg 88%
12:00 -7°C° 0 mm 3 m/S 735 mmHg 86%
13:00 -6°C° 0 mm 3 m/S 735 mmHg 84%
14:00 -6°C° 0 mm 3 m/S 736 mmHg 82%
15:00 -7°C° 0 mm 3 m/S 736 mmHg 85%
16:00 -6°C° 0 mm 2 m/S 736 mmHg 88%
17:00 -7°C° 0 mm 2 m/S 736 mmHg 91%
18:00 -8°C° 0 mm 2 m/S 736 mmHg 92%
19:00 -8°C° 0 mm 2 m/S 737 mmHg 92%
20:00 -7°C° 0 mm 1 m/S 737 mmHg 92%
21:00 -7°C° 0 mm 1 m/S 737 mmHg 91%
22:00 -7°C° 0 mm 1 m/S 737 mmHg 90%
23:00 -7°C° 0 mm 1 m/S 737 mmHg 88%

1 Februar, Montag

Zeit Temperatur Niederschläge Wind Luftdruck Luftfeuchtigkeit
00:00 -7°C° 0 mm 1 m/S 736 mmHg 88%
01:00 -7°C° 0 mm 1 m/S 736 mmHg 88%
02:00 -7°C° 0 mm 1 m/S 736 mmHg 87%
03:00 -7°C° 0 mm 1 m/S 735 mmHg 87%
04:00 -7°C° 0 mm 1 m/S 735 mmHg 88%
05:00 -8°C° 0 mm 2 m/S 734 mmHg 88%
06:00 -7°C° 0 mm 1 m/S 734 mmHg 89%
07:00 -7°C° 0 mm 1 m/S 734 mmHg 89%
08:00 -7°C° 0 mm 1 m/S 734 mmHg 90%
09:00 -6°C° 0 mm 1 m/S 734 mmHg 88%
10:00 -4°C° 0 mm 1 m/S 735 mmHg 87%
11:00 -3°C° 0 mm 1 m/S 735 mmHg 85%
12:00 -5°C° 0 mm 2 m/S 735 mmHg 83%
13:00 -4°C° 0 mm 2 m/S 735 mmHg 81%
14:00 -4°C° 0 mm 2 m/S 735 mmHg 79%
15:00 -5°C° 0 mm 2 m/S 735 mmHg 83%
16:00 -6°C° 0 mm 2 m/S 736 mmHg 86%
17:00 -8°C° 0 mm 2 m/S 736 mmHg 90%
18:00 -8°C° 0 mm 2 m/S 737 mmHg 89%
19:00 -8°C° 0 mm 1 m/S 738 mmHg 89%
20:00 -9°C° 0 mm 1 m/S 738 mmHg 88%
21:00 -9°C° 0 mm 1 m/S 739 mmHg 88%
22:00 -9°C° 0 mm 1 m/S 739 mmHg 88%
23:00 -9°C° 0 mm 1 m/S 740 mmHg 88%

2 Februar, Dienstag

Zeit Temperatur Niederschläge Wind Luftdruck Luftfeuchtigkeit
00:00 -9°C° 0 mm 1 m/S 740 mmHg 88%
01:00 -9°C° 0 mm 1 m/S 741 mmHg 88%
02:00 -9°C° 0 mm 1 m/S 741 mmHg 88%
03:00 -8°C° 0 mm 1 m/S 742 mmHg 88%
04:00 -8°C° 0 mm 1 m/S 742 mmHg 87%
05:00 -8°C° 0 mm 1 m/S 742 mmHg 87%
06:00 -8°C° 0 mm 1 m/S 743 mmHg 87%
07:00 -8°C° 0 mm 1 m/S 743 mmHg 88%
08:00 -8°C° 0 mm 1 m/S 744 mmHg 88%
09:00 -7°C° 0 mm 1 m/S 744 mmHg 86%
10:00 -6°C° 0 mm 1 m/S 744 mmHg 84%
11:00 -5°C° 0 mm 2 m/S 745 mmHg 82%
12:00 -5°C° 0 mm 2 m/S 745 mmHg 81%
13:00 -2°C° 0 mm 1 m/S 744 mmHg 81%
14:00 -1°C° 0 mm 1 m/S 744 mmHg 80%
15:00 -2°C° 0 mm 1 m/S 744 mmHg 83%
16:00 -3°C° 0 mm 1 m/S 745 mmHg 87%
17:00 -4°C° 0 mm 1 m/S 745 mmHg 91%
18:00 -6°C° 0 mm 1 m/S 745 mmHg 92%
19:00 -6°C° 0 mm 1 m/S 745 mmHg 93%
20:00 -7°C° 0 mm 1 m/S 745 mmHg 95%
21:00 -7°C° 0 mm 1 m/S 745 mmHg 95%
22:00 -7°C° 0 mm 1 m/S 745 mmHg 96%
23:00 -7°C° 0 mm 1 m/S 745 mmHg 96%
Mehr zeigen

Wir brauchen deine Erlaubnis

Meteoprog und unser Service Anbieter werden persönliche Daten aufbewahren, so wie Cookies, Geräte Bezeichnung oder ähnliche Technologien von deinem Gerät und Prozess, so wie Persönliche Daten Inhalte und Werbungen, genauso wie social Media und den Verkehr zu analysieren.

  • Aufbewahrung und/oder Zugang zu deiner Geräte Informationen.

    Cookies, Geräte Bezeichnung oder andere Informationen, können aufbewahrt oder Zugang zu deinem Gerät erhalten, für den Grund, der oben angegeben wird.

  • Personalisierte Werbung und Inhalte, Messungen, Einblick in das Publikum und Produkt Entwicklung.

    Werbungen und Inhalte können personalisiert werden, basierend auf ein Profil. Mehr Daten können besser personalisierte Werbungen und Inhalte hinzufügen. Werbung und Inhalte können gezeigt und gemessen werden. Einblicke über das Publikum, welche die Werbung gesehen haben und den Inhalt, können abgeleitet werden. So wie Daten können genutzt werden, um es zu verbessern oder die Benutzer Erfahrung zu verbessern das System und die Software.

Wenn du “Ich stimme zu” klickst, erlaubst du uns, die Cookies zu benutzen die Geräte Bezeichnung, den Web oder ähnliche Technologien zu benutzen. Deine Settings, können in deinem Gerät bei deinem Browser geändert werden.

Für den bestimmten Zweck, berechtigten Interessen beruhen darauf, mehr als auf den Inhalt. Du kannst mehr darüber in unseren Privaten und Cookie Politik lesen.